Location: East Horndon
(51.5667°N, 0.3500°E)
Time: 23:38:46
(UTC+00:00)

Gbstr 26 Del rocket - Pass Details

Date: 08 November 2025
Orbit: 489 x 1220 km, 51.8° (Epoch: 04 December)

Event Time Altitude Azimuth Distance (km) Brightness Sun altitude
Exits shadow 05:40:45 13° 245° (WSW) 1,973 5.1 -13.2°
Maximum altitude 05:45:16 76° 162° (SSE) 843 3.8 -12.5°
Drops below altitude 10° 05:51:33 10° 78° (ENE) 2,684 7.4 -11.6°
Sets 05:54:26 0° 77° (ENE) 3,750 8.3 -11.1°
